Regional Weather Roundup
Issued by NWS

Home | Current Version | Previous Version | Graphics & Text | Print | Product List | Glossary On
Versions: 1 2 3 4 5 6 7 8 9 10 11 12 13 14 15 16 17 18 19 20 21 22 23 24 25 26 27 28 29 30 31 32 33 34 35 36 37 38 39 40 41 42 43 44 45 46 47 48 49 50
000
ASUS43 KOAX 270802
RWRNE

WEATHER ROUNDUP FOR NEBRASKA
NATIONAL WEATHER SERVICE OMAHA NE
300 AM CDT SAT MAY 27 2017

NOTES: SATELLITE DATA IS BEING USED TO AUGMENT CLOUD COVER ABOVE
       12000 FEET.
       "FAIR" INDICATES FEW OR NO CLOUDS BELOW 12,000 FEET WITH NO
       SIGNIFICANT WEATHER AND/OR OBSTRUCTIONS TO VISIBILITY.

  * THESE STATIONS DO NOT REPORT WEATHER SUCH AS RAIN...SNOW OR FOG.

NEZ001>004-019>022-054>056-270900-
NEBRASKA PANHANDLE

CITY           SKY/WX    TMP DP  RH WIND       PRES   REMARKS
SCOTTSBLUFF    CLOUDY    48  46  93 W9        30.01R
ALLIANCE       PTCLDY    47  46  97 CALM      29.93F
CHADRON        CLOUDY    50  48  93 CALM      29.99R
GORDON         FAIR      49  47  92 N5        29.96R
KIMBALL        CLOUDY    49  48  98 NW8       30.01R FOG
SIDNEY         CLOUDY    51  49  92 NE9       29.98R
$$

NEZ057>060-069>072-079>082-270900-
SOUTHWEST NEBRASKA

CITY           SKY/WX    TMP DP  RH WIND       PRES   REMARKS
NORTH PLATTE   CLOUDY    56  54  93 NE10      29.91F
IMPERIAL       CLOUDY    55  52  89 NE12      29.88F
LEXINGTON      CLOUDY    58  55  90 E7        29.92F
MCCOOK         CLOUDY    58  55  90 S16G33    29.84F
OGALLALA       CLOUDY    54  52  93 NE12      29.91R
$$

NEZ005>010-023>029-035>040-094-270900-
NORTH CENTRAL NEBRASKA

CITY           SKY/WX    TMP DP  RH WIND       PRES   REMARKS
VALENTINE      CLOUDY    54  49  83 E3        29.95F
AINSWORTH      CLOUDY    55  50  83 CALM      29.97S
BROKEN BOW     RAIN      56  52  86 N8        29.95R
O`NEILL        RAIN      56  51  81 NW6       29.95R
ORD            LGT RAIN  58  49  72 W3        29.91R
THEDFORD       RAIN      53  52  96 E8        29.98F
$$

NEZ041-046>049-061>064-073>077-083>087-270900-
SOUTH CENTRAL NEBRASKA

CITY           SKY/WX    TMP DP  RH WIND       PRES   REMARKS
GRAND ISLAND   CLOUDY    59  47  64 NE6       29.90F
AURORA         CLOUDY    60  47  62 NE7       29.90F
HASTINGS       CLOUDY    60  49  66 NE7       29.91S
HEBRON         CLOUDY    59  55  84 CALM      29.85F
HOLDREGE       RAIN      59  56  89 NW9       29.95R
KEARNEY *      CLOUDY    61  48  63 W9        29.94R
YORK           CLOUDY    57  46  67 NE10      29.89F
$$

NEZ011>018-030>034-042>045-270900-
NORTHEAST NEBRASKA

CITY           SKY/WX    TMP DP  RH WIND       PRES   REMARKS
NORFOLK        CLOUDY    55  47  74 CALM      29.90F
ALBION         CLOUDY    61  44  54 CALM      29.91S
BLAIR          CLOUDY    60  47  61 N9        29.89S
FREMONT        CLOUDY    59  46  60 CALM      29.90F
TEKAMAH        CLOUDY    56  48  74 N6        29.90R
WAYNE          CLOUDY    53  49  89 CALM      29.91F
$$

NEZ050>053-065>068-078-088>093-270900-
SOUTHEAST NEBRASKA

CITY           SKY/WX    TMP DP  RH WIND       PRES   REMARKS
LINCOLN        CLOUDY    61  48  62 N6        29.89S
OMAHA EPPLEY   CLOUDY    55  49  80 NW7       29.89S
BEATRICE       CLOUDY    64  52  65 NE7       29.87R
FALLS CITY     PTCLDY    68  51  54 CALM      29.84S
NEBRASKA CITY  CLOUDY    65  46  51 NE8       29.87S
$$

NEZ044-045-051>053-067-270900-
OMAHA AREA

CITY           SKY/WX    TMP DP  RH WIND       PRES   REMARKS
OMAHA EPPLEY   CLOUDY    55  49  80 NW7       29.89S
BLAIR          CLOUDY    60  47  61 N9        29.89S
FREMONT        CLOUDY    59  46  60 CALM      29.90F
MILLARD        CLOUDY    65  49  55 CALM      29.88S
OFFUTT AFB     CLOUDY    60  51  71 N5        29.87F
WAHOO          FAIR      57  48  72 N8        29.89F
$$




USA.gov is the U.S. government's official web portal to all federal, state and local government web resources and services.